Home > Weather > Masaya > Past weeks

Flag for Nicaragua Weather for the Past 2 Weeks in Masaya, Nicaragua

Now
73 °F

Passing clouds.


Feels Like: 74 °F
Forecast: 72 / 90 °F
Wind: No wind

Location: Managua A. C. Sandino

Current Time: Feb 13, 2016 at 3:41:56 AM

Latest Report: Feb 13, 2016 at 3:00 AM


Visibility: N/A

Pressure: 29.86 "Hg

Humidity: 78%

Dew point: 66 °F

Location of MasayaLocation

Historic Weather in Masaya — Graph

°F

Masaya Temperature Yesterday

Maximum temperature yesterday: 93 °F (at 2:00 PM)
Minimum temperature yesterday: 73 °F (at 5:00 AM)
Average temperature yesterday: 84 °F

High & Low Weather Summary for the Past Weeks

 TemperatureHumidityPressure
High95 °F (Feb 4, 2:00 PM)94% (Jan 30, 4:00 AM)30.01 "Hg (Jan 30, 4:00 AM)
Low70 °F (Feb 3, 5:00 AM)34% (Feb 4, 3:00 PM)29.74 "Hg (Feb 1, 3:00 PM)
Average82 °F65%29.88 "Hg
* Reported Jan 29 4:00 AM — Feb 13 1:00 AM, Masaya, Weather by CustomWeather, © 2016

Note: Actual official high and low records may vary slightly from our data, if they occured in-between our weather recording intervals... More about our weather records

Advertising

Masaya Weather History for the Previous 24 Hours

 ConditionsComfort  
Time TempWeatherWind HumidityBarometerVisibility
1:00 AM
Sat, Feb 13
75 °FPassing clouds.No wind78%29.89 "HgN/A
12:00 AM77 °FPassing clouds.7 mph74%29.92 "HgN/A
11:00 PM
Fri, Feb 12
79 °FPassing clouds.12 mph70%29.92 "HgN/A
10:00 PM81 °FPassing clouds.12 mph66%29.92 "HgN/A
9:00 PM82 °FPassing clouds.9 mph62%29.89 "HgN/A
8:00 PM84 °FPassing clouds.12 mph58%29.86 "HgN/A
7:00 PM86 °FPassing clouds.9 mph55%29.83 "HgN/A
6:00 PM88 °FPassing clouds.12 mph49%29.83 "HgN/A
5:00 PM91 °FPassing clouds.21 mph44%29.80 "HgN/A
4:00 PM91 °FPassing clouds.16 mph44%29.80 "HgN/A
3:00 PM93 °FPassing clouds.23 mph44%29.80 "HgN/A
2:00 PM93 °FPassing clouds.21 mph44%29.83 "HgN/A
1:00 PM91 °FPassing clouds.23 mph46%29.86 "HgN/A
12:00 PM91 °FPassing clouds.23 mph46%29.89 "HgN/A
11:00 AM88 °FPassing clouds.18 mph52%29.92 "HgN/A
10:00 AM84 °FPassing clouds.16 mph58%29.98 "HgN/A
9:00 AM82 °FPassing clouds.16 mph62%29.95 "HgN/A
8:00 AM81 °FPassing clouds.12 mph62%29.95 "HgN/A
7:00 AM75 °FPassing clouds.12 mph74%29.95 "HgN/A
6:00 AM75 °FPassing clouds.9 mph69%29.92 "HgN/A
5:00 AM73 °FPassing clouds.7 mph69%29.92 "HgN/A
Weather by CustomWeather, © 2016

See weather overviewHow to use our weather pages